Location: Aurora Center
(43.5271°N, 98.5894°W)
Time: 06:09:24
(UTC-05:00)

Transit 4A - All Passes

Search period start: 19 July 2024 00:00
Search period end: 29 July 2024 00:00
Orbit: 870 x 973 km, 66.8° (Epoch: 19 July)

Date Brightness Start Highest point End Pass type
(mag) Time Alt. Az. Time Alt. Az. Time Alt. Az.
19 Jul - 00:36:43 10° N 00:40:43 18° NE 00:44:45 10° ENE visible
19 Jul - 02:22:02 10° NNW 02:28:04 75° ENE 02:34:15 10° SE visible
19 Jul - 04:09:39 10° WNW 04:13:46 19° WSW 04:17:57 10° SSW visible
19 Jul - 15:48:30 10° ESE 15:50:19 11° E 15:52:09 10° E daylight
19 Jul - 17:29:50 10° SSW 17:35:37 80° ESE 17:41:29 10° NNE daylight
19 Jul - 19:18:12 10° W 19:22:38 22° NW 19:27:08 10° N daylight
20 Jul - 00:45:23 10° N 00:50:07 23° NE 00:54:55 10° E visible
20 Jul - 02:31:02 10° NNW 02:37:05 78° WSW 02:43:16 10° SSE visible
20 Jul - 04:20:09 10° W 04:22:29 12° WSW 04:24:49 10° SW visible
20 Jul - 15:55:10 10° SSE 15:58:59 18° ESE 16:02:50 10° ENE daylight
20 Jul - 17:38:51 10° SW 17:44:38 72° WNW 17:50:30 10° NNE daylight
20 Jul - 19:28:22 10° WNW 19:32:03 17° NW 19:35:46 10° N daylight
21 Jul - 00:54:07 10° NNW 00:59:25 31° NE 01:04:49 10° ESE visible
21 Jul - 02:40:10 10° NW 02:46:03 54° WSW 02:52:03 10° S visible
21 Jul - 16:02:56 10° SSE 16:07:44 28° ESE 16:12:34 10° NE daylight
21 Jul - 17:48:07 10° SW 17:53:44 50° NW 17:59:26 10° NNE daylight
21 Jul - 19:38:52 10° WNW 19:41:33 13° NNW 19:44:15 10° N daylight
21 Jul - 23:18:28 10° N 23:20:37 12° NNE 23:22:47 10° NE visible
22 Jul - 01:02:57 10° NNW 01:08:39 42° NE 01:14:27 10° ESE visible
22 Jul - 02:49:25 10° NW 02:54:55 37° WSW 03:00:32 10° S visible
22 Jul - 16:11:09 10° S 16:16:33 41° ESE 16:21:58 10° NE daylight
22 Jul - 17:57:35 10° WSW 18:02:54 36° NW 18:08:18 10° NNE daylight
22 Jul - 19:50:11 10° NNW 19:51:07 10° NNW 19:52:04 10° NNW daylight
22 Jul - 23:26:47 10° N 23:30:10 15° NNE 23:33:34 10° ENE visible
23 Jul - 01:11:50 10° NNW 01:17:48 59° NE 01:23:53 10° SE visible
23 Jul - 02:58:53 10° NW 03:03:44 25° WSW 03:08:40 10° SSW visible
23 Jul - 16:19:44 10° SSW 16:25:26 61° ESE 16:31:11 10° NE daylight
23 Jul - 18:07:19 10° W 18:12:10 27° NW 18:17:06 10° NNE daylight
23 Jul - 23:35:21 10° N 23:39:37 20° NE 23:43:56 10° E visible
24 Jul - 01:20:47 10° NNW 01:26:52 82° ENE 01:33:04 10° SSE visible
24 Jul - 03:08:43 10° WNW 03:12:28 17° WSW 03:16:16 10° SW visible
24 Jul - 14:46:19 10° SE 14:48:58 13° ESE 14:51:38 10° ENE daylight
24 Jul - 16:28:35 10° SSW 16:34:23 88° ESE 16:40:16 10° NNE daylight
24 Jul - 18:17:17 10° W 18:21:31 20° NW 18:25:49 10° N daylight
24 Jul - 23:44:03 10° NNW 23:48:59 26° NE 23:54:00 10° E visible
25 Jul - 01:29:50 10° NW 01:35:51 71° WSW 01:42:01 10° SSE visible
25 Jul - 03:19:56 10° W 03:21:08 11° W 03:22:21 10° WSW visible
25 Jul - 14:53:29 10° SSE 14:57:40 21° ESE 15:01:52 10° ENE daylight
25 Jul - 16:37:40 10° SW 16:43:24 65° WNW 16:49:15 10° NNE daylight
25 Jul - 18:27:31 10° WNW 18:30:57 16° NNW 18:34:25 10° N daylight
25 Jul - 22:09:27 10° NNE 22:09:58 10° NNE 22:10:29 10° NNE visible
25 Jul - 23:52:49 10° NNW 23:58:16 34° NE 00:03:49 10° ESE visible
26 Jul - 01:38:59 10° NW 01:44:47 49° WSW 01:50:43 10° S visible
26 Jul - 15:01:25 10° S 15:06:25 31° ESE 15:11:28 10° NE daylight
26 Jul - 16:46:58 10° SW 16:52:31 45° NW 16:58:10 10° NNE daylight
26 Jul - 18:38:09 10° NW 18:40:28 12° NNW 18:42:48 10° N daylight
26 Jul - 22:16:57 10° N 22:19:33 13° NNE 22:22:11 10° NE visible
27 Jul - 00:01:39 10° NNW 00:07:28 46° NE 00:13:24 10° SE visible
27 Jul - 01:48:17 10° NW 01:53:38 33° WSW 01:59:06 10° S visible
27 Jul - 15:09:45 10° S 15:15:15 46° ESE 15:20:49 10° NE daylight
27 Jul - 16:56:31 10° WSW 17:01:44 33° NW 17:07:00 10° NNE daylight
27 Jul - 22:25:23 10° N 22:29:04 16° NE 22:32:48 10° ENE visible
28 Jul - 00:10:34 10° NNW 00:16:35 65° NE 00:22:45 10° SE visible
28 Jul - 01:57:49 10° WNW 02:02:26 23° WSW 02:07:06 10° SSW visible
28 Jul - 15:18:24 10° SSW 15:24:09 69° ESE 15:29:59 10° NE daylight
28 Jul - 17:06:18 10° W 17:11:00 25° NW 17:15:46 10° NNE daylight
28 Jul - 22:34:00 10° N 22:38:30 21° NE 22:43:03 10° E visible
